Welcome to the New NWS' Forecast!
Most changes are behind the scenes, but click here for differences you might notice.
Latest weather observations around

Seattle, Seattle Boeing Field (KBFI)

Using English Units (Switch to International System of Units)
Date/ Time (PDT) Wind (mph) Vis. (mi) Weather Sky Cond. Temp (°F) Rel. Humidity Wind Chill (°F) Heat Index (°F) Pressure Precip. (in)
Air Dwpt 6 hour Altimeter (inHg) Sea level (inHg) 1 hr 3 hr 6 hr
Max Min
Jul 19 11:53 S 8 10 Cloudy FEW017 OVC030 61 52     72%     30.19 30.19      
Jul 19 10:53 S 7 10 Cloudy BKN020 OVC028 61 51     70%     30.19 30.19      
Jul 19 09:53 S 9 10 Cloudy OVC020 61 50     67%     30.19 30.19      
Jul 19 08:53 SSE 8 10 Cloudy OVC020 60 50     69%     30.18 30.18      
Jul 19 07:53 S 8 10 Cloudy BKN019 OVC028 59 50     72%     30.18 30.18      
Jul 19 06:53 SSE 9 10 Cloudy BKN019 OVC029 58 50     75%     30.17 30.16      
Jul 19 05:53 SE 7 10 Mostly Cloudy SCT017 BKN024 BKN032 57 50     77%     30.16 30.16      
Jul 19 04:53 S 6 10 Cloudy BKN018 BKN023 OVC028 58 51     78%     30.16 30.15      
Jul 19 03:53 SSW 5 10 Cloudy BKN021 OVC026 59 51     75%     30.16 30.15      
Jul 19 02:53 SSW 5 10 Cloudy SCT021 OVC037 60 52     75%     30.15 30.15      
Jul 19 01:53 Calm 10 Cloudy FEW021 SCT026 OVC039 61 52     72%     30.15 30.15      
Jul 19 00:53 Calm 10 Mostly Cloudy SCT030 BKN048 62 52     70%     30.15 30.14      
Jul 18 23:53 Calm 10 Clear CLR 63 52     67%     30.15 30.14      
Jul 18 22:53 5 10 Mostly Clear FEW048 65 53     65%     30.15 30.14      
Jul 18 21:53 NW 3 10 Cloudy OVC046 66 53     63%     30.14 30.14      
Jul 18 20:53 WNW 6 10 Partly Cloudy SCT060 67 53     61%     30.12 30.11      
Jul 18 19:53 S 9 10 Mostly Clear FEW060 74 56     53%   74 30.1 30.1      
Jul 18 18:53   10 Mostly Clear FEW060 77 56     48%   77 30.11 30.11      
Jul 18 17:53   10 Mostly Clear FEW060 77 54     45%   77 30.12 30.12      
Jul 18 16:53 SW 6 10 Partly Cloudy SCT060 77 55     47%   77 30.14 30.14      
Jul 18 15:53 6 10 Clear CLR 75 55     50%   75 30.16 30.15      
Jul 18 14:53 S 8 10 Clear CLR 73 54     51%   72 30.17 30.17      
Jul 18 13:53 SW 8 10 Clear CLR 73 55     53%   73 30.19 30.18      
Jul 18 13:15 WSW 10 10 Mostly Clear FEW027 71 55     57%   71 30.19        
Jul 18 12:53 SSE 8 10 Mostly Cloudy SCT019 BKN027 70 55     59%     30.19 30.19      
Jul 18 11:53 S 8 10 Cloudy BKN019 OVC025 68 54     61%     30.2 30.19      
Jul 18 10:53 S 5 10 Cloudy SCT017 OVC024 65 54     68%     30.19 30.19      
Jul 18 09:53 S 7 10 Cloudy OVC016 63 54     72%     30.19 30.19      
Jul 18 08:53 SW 6 10 Cloudy BKN015 OVC022 62 55     78%     30.19 30.19      
Jul 18 07:53 S 6 10 Cloudy FEW013 OVC020 62 55     78%     30.17 30.17      
Jul 18 06:53 6 10 Cloudy SCT012 OVC022 61 55     81%     30.16 30.15      
Jul 18 05:53 SSW 6 10 Cloudy OVC020 60 55     83%     30.14 30.14      
Jul 18 04:53 SW 7 10 Clear   60 55     83%     30.13 30.13      
Jul 18 03:53 SSW 8 10 Cloudy OVC016 62 55     78%     30.12 30.12      
Jul 18 02:53 3 10 Cloudy OVC018 62 55     78%     30.11 30.11      
Jul 18 01:53 SW 8 10 Cloudy OVC017 62 55     78%     30.1 30.1      
Jul 18 00:53 S 8 10 Cloudy OVC018 63 55     75%     30.09 30.09      
Jul 17 23:53 6 10 Cloudy OVC018 63 55     75%     30.08 30.08      
Jul 17 23:40 S 8 10 Mostly Cloudy BKN018 62 55     78%     30.08        
Jul 17 22:53 SSW 7 10 Mostly Clear FEW020 62 55     78%     30.07 30.07      
Jul 17 21:53 7 10 Clear CLR 64 56     75%     30.05 30.05      
Jul 17 20:53 7 10 Clear CLR 70 55     59%     30.02 30.02      
Jul 17 19:53 S 7 10 Clear CLR 78 50     37%   77 29.99 29.99      
Jul 17 18:53 SW 8 10 Clear CLR 82 49     32%   81 29.99 29.98      
Jul 17 17:53 SW 9 10 Clear CLR 84 45     26%   82 29.98 29.98      
Jul 17 16:53 WSW 8 10 Clear CLR 85 47     27%   82 29.99 29.99      
Jul 17 15:53 SSW 8 10 Clear CLR 84 53     35%   83 30 30      
Jul 17 14:53 S 9 10 Clear CLR 83 54     37%   82 30.01 30.01      
Jul 17 13:53 SSE 9 10 Clear CLR 81 51     35%   80 30.02 30.02      
Jul 17 12:53 6 10 Clear CLR 79 55     44%   79 30.03 30.02      
Jul 17 11:53 5 10 Clear CLR 76 54     47%   75 30.03 30.03      
Jul 17 10:53 S 8 10 Mostly Clear FEW170 75 52     45%   74 30.03 30.03      
Jul 17 09:53 SW 9 10 Mostly Clear FEW170 71 52     51%   70 30.04 30.04      
Jul 17 08:53 S 7 10 Clear CLR 69 54     59%     30.04 30.03      
Jul 17 07:53 SSE 7 10 Clear CLR 66 55     68%     30.03 30.03      
Jul 17 06:53 SSE 7 10 Mostly Clear FEW180 63 55     75%     30.02 30.02      
Jul 17 05:53 S 3 10 Clear CLR 63 54     72%     30.01 30.01      
Jul 17 04:53 Calm 10 Clear CLR 64 52     65%     30 30      
Jul 17 03:53 Calm 10 Clear CLR 65 53     65%     30 29.99      
Jul 17 02:53 Calm 10 Clear CLR 67 53     61%     29.99 29.98      
Jul 17 01:53 Calm 10 Clear   70 51     51%     29.98 29.98      
Jul 17 00:53 Calm 10 Clear CLR 71 51     49%   70 29.97 29.97      
Jul 16 23:53 Calm 10 Clear CLR 72 51     48%   71 29.97 29.97      
Jul 16 22:53 N 6 10 Clear CLR 76 49     39%   75 29.96 29.96      
Jul 16 21:53 N 3 10 Clear CLR 79 47     32%   78 29.95 29.95      
Jul 16 20:53 Calm 10 Clear CLR 82 44     26%   80 29.94 29.94      
Jul 16 19:53 NW 7 10 Clear CLR 85 42     22%   82 29.94 29.94      
Jul 16 18:53 NW 9 10 Clear CLR 88 39     18%   84 29.94 29.93      
Jul 16 17:53 NW 7 10 Mostly Clear FEW250 90 40     17%   86 29.95 29.95      
Jul 16 16:53 6 10 Clear CLR 89 45     22%   86 29.96 29.96      
Jul 16 14:53 WNW 9 10 Clear CLR 87 46     24%   84 29.99 29.99      
Jul 16 13:53 NNW 9 10 Clear CLR 86 47     26%   83 29.99 29.99      
Jul 16 12:53 6 10 Clear   83 49     31%   81 30.01 30.01      
May 15 05:53 SSW 6 10 Cloudy OVC008 55 51     86%     29.92 29.92      
May 14 14:53 NNW 8 10 Clear CLR 83 51     33%   81 29.88 29.88      
May 13 17:53 NW 7 10 Clear CLR 81 47     30%   80 29.87 29.87      
May 13 11:53 Calm 10 Clear CLR 71 54     55%   70 29.95 29.94      
May 13 10:53 6 10 Clear CLR 69 53     57%     29.95 29.95      
May 13 08:53 ENE 3 10 Clear CLR 64 51     63%     29.98 29.97      
May 12 01:53 SE 6 10 Clear CLR 53 47     80%     30.19 30.19      
May 12 00:53 Calm 10 Clear CLR 57 46     67%     30.19 30.19      
May 11 17:53 3 10 Partly Cloudy SCT046 67 46     47%     30.2 30.2      
Jun 12 03:53 SSE 8 10 Mostly Cloudy BKN060 53 51     93%     30 30      
Jun 12 02:53 SSE 7 10 Mostly Cloudy BKN055 54 51     90%     30 29.99      
Jun 11 22:53 Calm 10 Clear CLR 61 49     64%     29.99 29.99      
Jun 11 14:53 NW 8 10 Clear   69 48     47%     30 29.99      
Jun 11 01:53 Calm 10 Mostly Cloudy BKN085 57 47     69%     29.97 29.97      
Jun 10 23:53 Calm 10 Cloudy OVC075 59 47     64%     29.95 29.95      
Jun 10 15:53 NNW 7 10 Clear   65 44     47%     29.85 29.85      
Jun 08 08:44 SSE 8 10 Light Rain SCT007 BKN038 OVC095 57 57     100%     29.66   0    
Jun 07 14:53 6 10 Cloudy SCT140 OVC250 79 54     42%   79 29.69 29.69      
Jun 06 00:53 3 10 Clear CLR 60 46     60%     30.04 30.04      
Jun 05 20:53 NW 6 10 Clear CLR 65 46     50%     30.05 30.05      
Jun 05 19:53 NW 6 10 Mostly Cloudy BKN200 67 47     49%     30.05 30.05      
Jun 05 15:53 WNW 9 10 Mostly Cloudy BKN250 71 45     39%   70 30.08 30.07